Hourly Data Report for October 04, 2013

All times are specified in Local Standard Time (LST). Add 1 hour to adjust for Daylight Saving Time where and when it is observed.

RANKIN INLET A
NUNAVUT

62°48'38.000" N
92°06'53.000" W
32.30 m
2303405
71083
YRT

Download Data

Hourly Data (October 2013)
Hourly Data Report for October 4, 2013
Temp Definition
°C
Dew Point Temp Definition
°C
Rel Hum Definition
%
Wind Dir Definition
10's deg

Wind Spd Definition
km/h
Visibility Definition
km
Stn Press Definition
kPa
Hmdx Definition


Wind Chill Definition


Weather Definition


TIME
00:00 Legend Double Dagger -3.5 -8.6 68 2 22 24.1 102.25   -10 Cloudy
01:00 Legend Double Dagger -3.5 -8.4 69 36 22 24.1 102.27   -10 LegendNANA
02:00 Legend Double Dagger -3.5 -8.2 70 35 23 24.1 102.28   -10 LegendNANA
03:00 Legend Double Dagger -3.7 -8.4 70 36 23 24.1 102.32   -10 Cloudy
04:00 Legend Double Dagger -3.7 -8.2 71 1 21 24.1 102.36   -10 LegendNANA
05:00 Legend Double Dagger -3.8 -8.3 71 2 25 24.1 102.39   -11 LegendNANA
06:00 Legend Double Dagger -4.1 -8.4 72 36 23 24.1 102.43   -11 Cloudy
07:00 Legend Double Dagger -4.9 -8.8 74 1 22 24.1 102.44   -12 LegendNANA
08:00 Legend Double Dagger -4.2 -8.0 75 36 20 24.1 102.44   -11 LegendNANA
09:00 Legend Double Dagger -3.7 -7.9 73 1 17 24.1 102.45   -9 Mostly Cloudy
10:00 Legend Double Dagger -4.1 -7.9 75 33 14 24.1 102.46   -9 LegendNANA
11:00 Legend Double Dagger -2.9 -7.8 69 4 12 24.1 102.47   -7 LegendNANA
12:00 Legend Double Dagger -4.0 -5.9 87 34 13 19.3 102.48   -9 Snow Showers
13:00 Legend Double Dagger -3.6 -7.4 75 35 8 24.1 102.47   -7 Snow Showers
14:00 Legend Double Dagger -3.6 -6.6 80 1 14 24.1 102.46   -9 Snow Showers
15:00 Legend Double Dagger -3.1 -8.2 68 35 14 24.1 102.44   -8 Mostly Cloudy
16:00 Legend Double Dagger -3.5 -8.4 69 35 12 24.1 102.43   -8 LegendNANA
17:00 Legend Double Dagger -3.9 -8.6 70 36 13 24.1 102.42   -9 LegendNANA
18:00 Legend Double Dagger -4.2 -8.7 71 29 6 24.1 102.42   -7 Mostly Cloudy
19:00 Legend Double Dagger -4.2 -8.3 73 35 8 24.1 102.40   -8 LegendNANA
20:00 Legend Double Dagger -4.4 -8.5 73 32 9 24.1 102.38   -8 LegendNANA
21:00 Legend Double Dagger -4.4 -8.5 73 27 3 24.1 102.34   -6 Snow Showers
22:00 Legend Double Dagger -4.5 -8.3 75 33 4 19.3 102.31   -6 Snow Showers
23:00 Legend Double Dagger -4.6 -8.4 75 32 7 19.3 102.28   -8 Snow Showers

Notes on Data Quality.

Legend

  • E = Estimated
  • M = Missing
  • NA = Not Available
  • ‡ = Partner data that is not subject to review by the National Climate Archives
Date modified: